Wetterdaten: Donnerstag, 24.09.2015
Datum Zeit Temp. A. Feuchte A. Luftdruck Regen Wind Richtung Richtung Sonnenschein ET UV Solar Taupunkt Windchill Windben Empfang
24.09.2015 00:01 8,6 C 99 % 1017,8 hPa 0,0 l/m 0,0 km/h (0 Bft) S 186 0 min 0,000 mm 0,0 UV-I 0 W/m 8,5 C 8,6 C 0,0 km/h (0 Bft) 0,00 %
24.09.2015 00:06 8,6 C 99 % 1018,0 hPa 0,0 l/m 1,8 km/h (1 Bft) S-SW 201 0 min 0,000 mm 0,0 UV-I 0 W/m 8,5 C 8,6 C 4,0 km/h (1 Bft) 0,00 %
24.09.2015 00:11 8,6 C 99 % 1017,8 hPa 0,0 l/m 0,0 km/h (0 Bft) S 186 0 min 0,000 mm 0,0 UV-I 0 W/m 8,5 C 8,6 C 0,0 km/h (0 Bft) 0,00 %
24.09.2015 00:16 8,6 C 99 % 1017,9 hPa 0,0 l/m 0,0 km/h (0 Bft) S 175 0 min 0,000 mm 0,0 UV-I 0 W/m 8,5 C 8,6 C 0,0 km/h (0 Bft) 0,00 %
24.09.2015 00:21 8,6 C 99 % 1018,0 hPa 0,0 l/m 0,0 km/h (0 Bft) S 187 0 min 0,000 mm 0,0 UV-I 0 W/m 8,5 C 8,6 C 0,0 km/h (0 Bft) 0,00 %
24.09.2015 00:26 8,6 C 99 % 1018,0 hPa 0,0 l/m 0,0 km/h (0 Bft) NO 35 0 min 0,000 mm 0,0 UV-I 0 W/m 8,5 C 8,6 C 0,0 km/h (0 Bft) 0,00 %
24.09.2015 00:31 8,6 C 99 % 1018,2 hPa 0,0 l/m 0,0 km/h (0 Bft) O 92 0 min 0,000 mm 0,0 UV-I 0 W/m 8,5 C 8,6 C 0,0 km/h (0 Bft) 0,00 %
24.09.2015 00:36 8,6 C 99 % 1018,3 hPa 0,0 l/m 0,0 km/h (0 Bft) SO 135 0 min 0,000 mm 0,0 UV-I 0 W/m 8,5 C 8,6 C 0,0 km/h (0 Bft) 0,00 %
24.09.2015 00:41 8,6 C 99 % 1018,2 hPa 0,0 l/m 0,0 km/h (0 Bft) O 97 0 min 0,000 mm 0,0 UV-I 0 W/m 8,5 C 8,6 C 0,0 km/h (0 Bft) 0,00 %
24.09.2015 00:46 8,6 C 99 % 1018,4 hPa 0,0 l/m 1,4 km/h (1 Bft) O 94 0 min 0,000 mm 0,0 UV-I 0 W/m 8,5 C 8,6 C 4,0 km/h (1 Bft) 0,00 %
24.09.2015 00:51 8,6 C 99 % 1018,5 hPa 0,0 l/m 0,0 km/h (0 Bft) NO 49 0 min 0,000 mm 0,0 UV-I 0 W/m 8,5 C 8,6 C 0,0 km/h (0 Bft) 0,00 %
24.09.2015 00:56 8,6 C 99 % 1018,5 hPa 0,0 l/m 0,0 km/h (0 Bft) O-SO 111 0 min 0,000 mm 0,0 UV-I 0 W/m 8,5 C 8,6 C 0,0 km/h (0 Bft) 0,00 %
24.09.2015 01:01 8,6 C 99 % 1018,8 hPa 0,0 l/m 0,0 km/h (0 Bft) NO 50 0 min 0,000 mm 0,0 UV-I 0 W/m 8,5 C 8,6 C 0,0 km/h (0 Bft) 0,00 %
24.09.2015 01:06 8,7 C 99 % 1018,8 hPa 0,0 l/m 0,0 km/h (0 Bft) O 80 0 min 0,000 mm 0,0 UV-I 0 W/m 8,6 C 8,7 C 0,0 km/h (0 Bft) 0,00 %
24.09.2015 01:11 8,7 C 99 % 1018,7 hPa 0,3 l/m 0,0 km/h (0 Bft) O-NO 76 0 min 0,000 mm 0,0 UV-I 0 W/m 8,6 C 8,7 C 0,0 km/h (0 Bft) 0,00 %
24.09.2015 01:16 8,7 C 99 % 1018,7 hPa 0,0 l/m 0,0 km/h (0 Bft) O-NO 61 0 min 0,000 mm 0,0 UV-I 0 W/m 8,6 C 8,7 C 0,0 km/h (0 Bft) 0,00 %
24.09.2015 01:21 8,7 C 99 % 1018,8 hPa 0,0 l/m 0,0 km/h (0 Bft) O-NO 62 0 min 0,000 mm 0,0 UV-I 0 W/m 8,6 C 8,7 C 0,0 km/h (0 Bft) 0,00 %
24.09.2015 01:26 8,7 C 99 % 1018,8 hPa 0,0 l/m 0,0 km/h (0 Bft) O-SO 111 0 min 0,000 mm 0,0 UV-I 0 W/m 8,6 C 8,7 C 0,0 km/h (0 Bft) 0,00 %
24.09.2015 01:31 8,7 C 99 % 1018,8 hPa 0,0 l/m 0,0 km/h (0 Bft) O 79 0 min 0,000 mm 0,0 UV-I 0 W/m 8,6 C 8,7 C 0,0 km/h (0 Bft) 0,00 %
24.09.2015 01:36 8,7 C 99 % 1018,8 hPa 0,0 l/m 0,0 km/h (0 Bft) SO 139 0 min 0,000 mm 0,0 UV-I 0 W/m 8,6 C 8,7 C 0,0 km/h (0 Bft) 0,00 %
24.09.2015 01:41 8,7 C 99 % 1019,0 hPa 0,3 l/m 0,0 km/h (0 Bft) O 81 0 min 0,000 mm 0,0 UV-I 0 W/m 8,6 C 8,7 C 0,0 km/h (0 Bft) 0,00 %
24.09.2015 01:47 8,6 C 99 % 1019,0 hPa 0,0 l/m 0,0 km/h (0 Bft) O 94 0 min 0,000 mm 0,0 UV-I 0 W/m 8,5 C 8,6 C 0,0 km/h (0 Bft) 0,00 %
24.09.2015 01:52 8,6 C 99 % 1019,1 hPa 0,0 l/m 0,0 km/h (0 Bft) S 186 0 min 0,000 mm 0,0 UV-I 0 W/m 8,5 C 8,6 C 0,0 km/h (0 Bft) 0,00 %
24.09.2015 01:57 8,6 C 99 % 1019,2 hPa 0,0 l/m 0,0 km/h (0 Bft) O 99 0 min 0,000 mm 0,0 UV-I 0 W/m 8,5 C 8,6 C 0,0 km/h (0 Bft) 0,00 %
24.09.2015 02:02 8,6 C 99 % 1019,0 hPa 0,3 l/m 0,0 km/h (0 Bft) O-SO 111 0 min 0,000 mm 0,0 UV-I 0 W/m 8,5 C 8,6 C 0,0 km/h (0 Bft) 0,00 %
24.09.2015 02:07 8,6 C 99 % 1019,1 hPa 0,0 l/m 0,0 km/h (0 Bft) NO 50 0 min 0,000 mm 0,0 UV-I 0 W/m 8,5 C 8,6 C 0,0 km/h (0 Bft) 0,00 %
24.09.2015 02:12 8,6 C 99 % 1019,1 hPa 0,0 l/m 0,0 km/h (0 Bft) S 181 0 min 0,000 mm 0,0 UV-I 0 W/m 8,5 C 8,6 C 0,0 km/h (0 Bft) 0,00 %
24.09.2015 02:17 8,6 C 99 % 1019,2 hPa 0,0 l/m 0,0 km/h (0 Bft) SO 124 0 min 0,000 mm 0,0 UV-I 0 W/m 8,5 C 8,6 C 0,0 km/h (0 Bft) 0,00 %
24.09.2015 02:22 8,6 C 99 % 1019,0 hPa 0,3 l/m 0,0 km/h (0 Bft) S 183 0 min 0,000 mm 0,0 UV-I 0 W/m 8,5 C 8,6 C 0,0 km/h (0 Bft) 0,00 %
24.09.2015 02:27 8,6 C 99 % 1019,1 hPa 0,0 l/m 0,0 km/h (0 Bft) O-NO 71 0 min 0,000 mm 0,0 UV-I 0 W/m 8,5 C 8,6 C 0,0 km/h (0 Bft) 0,00 %
24.09.2015 02:32 8,5 C 99 % 1019,1 hPa 0,0 l/m 0,0 km/h (0 Bft) O-NO 62 0 min 0,000 mm 0,0 UV-I 0 W/m 8,4 C 8,5 C 0,0 km/h (0 Bft) 0,00 %
24.09.2015 02:37 8,5 C 99 % 1019,1 hPa 0,0 l/m 0,0 km/h (0 Bft) NO 41 0 min 0,000 mm 0,0 UV-I 0 W/m 8,4 C 8,5 C 0,0 km/h (0 Bft) 0,00 %
24.09.2015 02:42 8,5 C 99 % 1019,0 hPa 0,0 l/m 0,0 km/h (0 Bft) O-NO 69 0 min 0,000 mm 0,0 UV-I 0 W/m 8,4 C 8,5 C 0,0 km/h (0 Bft) 0,00 %
24.09.2015 02:47 8,5 C 99 % 1019,0 hPa 0,0 l/m 0,0 km/h (0 Bft) S 180 0 min 0,000 mm 0,0 UV-I 0 W/m 8,4 C 8,5 C 0,0 km/h (0 Bft) 0,00 %
24.09.2015 02:52 8,5 C 99 % 1019,0 hPa 0,0 l/m 0,0 km/h (0 Bft) O 86 0 min 0,000 mm 0,0 UV-I 0 W/m 8,4 C 8,5 C 0,0 km/h (0 Bft) 0,00 %
24.09.2015 02:57 8,5 C 99 % 1018,7 hPa 0,0 l/m 0,0 km/h (0 Bft) O-NO 67 0 min 0,000 mm 0,0 UV-I 0 W/m 8,4 C 8,5 C 0,0 km/h (0 Bft) 0,00 %
24.09.2015 03:02 8,5 C 99 % 1018,8 hPa 0,0 l/m 0,0 km/h (0 Bft) O-SO 111 0 min 0,000 mm 0,0 UV-I 0 W/m 8,4 C 8,5 C 0,0 km/h (0 Bft) 0,00 %
24.09.2015 03:07 8,5 C 99 % 1018,9 hPa 0,0 l/m 0,0 km/h (0 Bft) O 87 0 min 0,000 mm 0,0 UV-I 0 W/m 8,4 C 8,5 C 0,0 km/h (0 Bft) 0,00 %
24.09.2015 03:12 8,5 C 99 % 1018,8 hPa 0,0 l/m 0,0 km/h (0 Bft) O-NO 60 0 min 0,000 mm 0,0 UV-I 0 W/m 8,4 C 8,5 C 0,0 km/h (0 Bft) 0,00 %
24.09.2015 03:17 8,5 C 99 % 1018,7 hPa 0,0 l/m 0,0 km/h (0 Bft) W-SW 251 0 min 0,000 mm 0,0 UV-I 0 W/m 8,4 C 8,5 C 0,0 km/h (0 Bft) 0,00 %
24.09.2015 03:22 8,5 C 99 % 1018,9 hPa 0,3 l/m 0,0 km/h (0 Bft) S 182 0 min 0,000 mm 0,0 UV-I 0 W/m 8,4 C 8,5 C 0,0 km/h (0 Bft) 0,00 %
24.09.2015 03:27 8,5 C 99 % 1018,7 hPa 0,0 l/m 0,0 km/h (0 Bft) O-SO 103 0 min 0,000 mm 0,0 UV-I 0 W/m 8,4 C 8,5 C 0,0 km/h (0 Bft) 0,00 %
24.09.2015 03:32 8,5 C 99 % 1018,7 hPa 0,0 l/m 0,0 km/h (0 Bft) O-SO 105 0 min 0,000 mm 0,0 UV-I 0 W/m 8,4 C 8,5 C 0,0 km/h (0 Bft) 0,00 %
24.09.2015 03:37 8,5 C 99 % 1018,9 hPa 0,0 l/m 0,0 km/h (0 Bft) SO 129 0 min 0,000 mm 0,0 UV-I 0 W/m 8,4 C 8,5 C 0,0 km/h (0 Bft) 0,00 %
24.09.2015 03:42 8,5 C 99 % 1018,9 hPa 0,0 l/m 0,0 km/h (0 Bft) O-NO 67 0 min 0,000 mm 0,0 UV-I 0 W/m 8,4 C 8,5 C 0,0 km/h (0 Bft) 0,00 %
24.09.2015 03:47 8,5 C 99 % 1019,0 hPa 0,0 l/m 0,0 km/h (0 Bft) S 190 0 min 0,000 mm 0,0 UV-I 0 W/m 8,4 C 8,5 C 0,0 km/h (0 Bft) 0,00 %
24.09.2015 03:52 8,5 C 99 % 1019,0 hPa 0,0 l/m 0,0 km/h (0 Bft) S 177 0 min 0,000 mm 0,0 UV-I 0 W/m 8,4 C 8,5 C 0,0 km/h (0 Bft) 0,00 %
24.09.2015 03:57 8,5 C 99 % 1018,9 hPa 0,0 l/m 0,0 km/h (0 Bft) S-SW 196 0 min 0,000 mm 0,0 UV-I 0 W/m 8,4 C 8,5 C 0,0 km/h (0 Bft) 0,00 %
24.09.2015 04:02 8,5 C 99 % 1019,1 hPa 0,0 l/m 0,0 km/h (0 Bft) O 83 0 min 0,000 mm 0,0 UV-I 0 W/m 8,4 C 8,5 C 0,0 km/h (0 Bft) 0,00 %
24.09.2015 04:07 8,6 C 99 % 1019,1 hPa 0,0 l/m 0,0 km/h (0 Bft) O-SO 102 0 min 0,000 mm 0,0 UV-I 0 W/m 8,5 C 8,6 C 0,0 km/h (0 Bft) 0,00 %
24.09.2015 04:12 8,6 C 99 % 1019,0 hPa 0,0 l/m 0,0 km/h (0 Bft) O-SO 102 0 min 0,000 mm 0,0 UV-I 0 W/m 8,5 C 8,6 C 0,0 km/h (0 Bft) 0,00 %
24.09.2015 04:17 8,6 C 99 % 1019,0 hPa 0,0 l/m 0,0 km/h (0 Bft) S 184 0 min 0,000 mm 0,0 UV-I 0 W/m 8,5 C 8,6 C 0,0 km/h (0 Bft) 0,00 %
24.09.2015 04:22 8,6 C 99 % 1019,1 hPa 0,0 l/m 0,0 km/h (0 Bft) O-NO 74 0 min 0,000 mm 0,0 UV-I 0 W/m 8,5 C 8,6 C 0,0 km/h (0 Bft) 0,00 %
24.09.2015 04:27 8,7 C 99 % 1019,2 hPa 0,0 l/m 0,0 km/h (0 Bft) S-SW 202 0 min 0,000 mm 0,0 UV-I 0 W/m 8,6 C 8,7 C 0,0 km/h (0 Bft) 0,00 %
24.09.2015 04:32 8,7 C 99 % 1019,1 hPa 0,0 l/m 0,0 km/h (0 Bft) SW 223 0 min 0,000 mm 0,0 UV-I 0 W/m 8,6 C 8,7 C 0,0 km/h (0 Bft) 0,00 %
24.09.2015 04:37 8,7 C 99 % 1019,1 hPa 0,0 l/m 0,4 km/h (0 Bft) S-SW 194 0 min 0,000 mm 0,0 UV-I 0 W/m 8,6 C 8,7 C 4,0 km/h (1 Bft) 0,00 %
24.09.2015 04:42 8,7 C 99 % 1019,1 hPa 0,0 l/m 0,0 km/h (0 Bft) O-NO 69 0 min 0,000 mm 0,0 UV-I 0 W/m 8,6 C 8,7 C 0,0 km/h (0 Bft) 0,00 %
24.09.2015 04:47 8,8 C 99 % 1019,2 hPa 0,0 l/m 0,0 km/h (0 Bft) SO 144 0 min 0,000 mm 0,0 UV-I 0 W/m 8,7 C 8,8 C 0,0 km/h (0 Bft) 0,00 %
24.09.2015 04:52 8,8 C 99 % 1019,2 hPa 0,0 l/m 0,0 km/h (0 Bft) S-SW 202 0 min 0,000 mm 0,0 UV-I 0 W/m 8,7 C 8,8 C 0,0 km/h (0 Bft) 0,00 %
24.09.2015 04:57 8,8 C 99 % 1019,2 hPa 0,0 l/m 0,4 km/h (0 Bft) SO 144 0 min 0,000 mm 0,0 UV-I 0 W/m 8,7 C 8,8 C 4,0 km/h (1 Bft) 0,00 %
24.09.2015 05:02 8,8 C 99 % 1019,4 hPa 0,0 l/m 4,3 km/h (1 Bft) S 178 0 min 0,000 mm 0,0 UV-I 0 W/m 8,7 C 8,8 C 7,9 km/h (2 Bft) 0,00 %
24.09.2015 05:07 8,8 C 99 % 1019,4 hPa 0,0 l/m 0,0 km/h (0 Bft) N-NO 17 0 min 0,000 mm 0,0 UV-I 0 W/m 8,7 C 8,8 C 0,0 km/h (0 Bft) 0,00 %
24.09.2015 05:12 8,8 C 99 % 1019,5 hPa 0,0 l/m 0,7 km/h (0 Bft) O 97 0 min 0,000 mm 0,0 UV-I 0 W/m 8,7 C 8,8 C 4,0 km/h (1 Bft) 0,00 %
24.09.2015 05:17 8,9 C 99 % 1019,4 hPa 0,3 l/m 0,0 km/h (0 Bft) N-NO 26 0 min 0,000 mm 0,0 UV-I 0 W/m 8,8 C 8,9 C 0,0 km/h (0 Bft) 0,00 %
24.09.2015 05:22 8,9 C 99 % 1019,3 hPa 0,0 l/m 0,0 km/h (0 Bft) SO 140 0 min 0,000 mm 0,0 UV-I 0 W/m 8,8 C 8,9 C 0,0 km/h (0 Bft) 0,00 %
24.09.2015 05:27 8,9 C 99 % 1019,6 hPa 0,0 l/m 0,0 km/h (0 Bft) O-NO 78 0 min 0,000 mm 0,0 UV-I 0 W/m 8,8 C 8,9 C 0,0 km/h (0 Bft) 0,00 %
24.09.2015 05:32 8,9 C 99 % 1019,7 hPa 0,0 l/m 0,0 km/h (0 Bft) O-SO 123 0 min 0,000 mm 0,0 UV-I 0 W/m 8,8 C 8,9 C 0,0 km/h (0 Bft) 0,00 %
24.09.2015 05:37 9,0 C 99 % 1019,6 hPa 0,0 l/m 0,4 km/h (0 Bft) S-SW 197 0 min 0,000 mm 0,0 UV-I 0 W/m 8,9 C 9,0 C 4,0 km/h (1 Bft) 0,00 %
24.09.2015 05:42 9,0 C 99 % 1019,5 hPa 0,0 l/m 0,0 km/h (0 Bft) S-SO 155 0 min 0,000 mm 0,0 UV-I 0 W/m 8,9 C 9,0 C 0,0 km/h (0 Bft) 0,00 %
24.09.2015 05:47 9,0 C 99 % 1019,6 hPa 0,0 l/m 0,0 km/h (0 Bft) O-NO 61 0 min 0,000 mm 0,0 UV-I 0 W/m 8,9 C 9,0 C 0,0 km/h (0 Bft) 0,00 %
24.09.2015 05:52 9,0 C 99 % 1019,7 hPa 0,0 l/m 0,4 km/h (0 Bft) S-SW 203 0 min 0,000 mm 0,0 UV-I 0 W/m 8,9 C 9,0 C 4,0 km/h (1 Bft) 0,00 %
24.09.2015 05:57 9,0 C 99 % 1019,7 hPa 0,0 l/m 0,0 km/h (0 Bft) SO 133 0 min 0,000 mm 0,0 UV-I 0 W/m 8,9 C 9,0 C 0,0 km/h (0 Bft) 0,00 %
24.09.2015 06:02 9,0 C 99 % 1019,7 hPa 0,0 l/m 0,4 km/h (0 Bft) S 188 0 min 0,000 mm 0,0 UV-I 0 W/m 8,9 C 9,0 C 4,0 km/h (1 Bft) 0,00 %
24.09.2015 06:07 9,0 C 99 % 1019,9 hPa 0,3 l/m 0,0 km/h (0 Bft) O 82 0 min 0,000 mm 0,0 UV-I 0 W/m 8,9 C 9,0 C 0,0 km/h (0 Bft) 0,00 %
24.09.2015 06:12 9,0 C 99 % 1019,8 hPa 0,0 l/m 0,0 km/h (0 Bft) O-NO 65 0 min 0,000 mm 0,0 UV-I 0 W/m 8,9 C 9,0 C 0,0 km/h (0 Bft) 0,00 %
24.09.2015 06:17 9,0 C 99 % 1019,8 hPa 0,0 l/m 0,0 km/h (0 Bft) O 89 0 min 0,000 mm 0,0 UV-I 0 W/m 8,9 C 9,0 C 0,0 km/h (0 Bft) 0,00 %
24.09.2015 06:22 9,1 C 99 % 1019,9 hPa 0,0 l/m 0,0 km/h (0 Bft) SW 219 0 min 0,000 mm 0,0 UV-I 0 W/m 9,0 C 9,1 C 0,0 km/h (0 Bft) 0,00 %
24.09.2015 06:27 9,1 C 99 % 1019,9 hPa 0,0 l/m 0,0 km/h (0 Bft) O 92 0 min 0,000 mm 0,0 UV-I 0 W/m 9,0 C 9,1 C 0,0 km/h (0 Bft) 0,00 %
24.09.2015 06:32 9,1 C 99 % 1019,8 hPa 0,0 l/m 0,0 km/h (0 Bft) O-SO 108 0 min 0,000 mm 0,0 UV-I 0 W/m 9,0 C 9,1 C 0,0 km/h (0 Bft) 0,00 %
24.09.2015 06:37 9,1 C 99 % 1020,0 hPa 0,0 l/m 0,0 km/h (0 Bft) S 172 0 min 0,000 mm 0,0 UV-I 0 W/m 9,0 C 9,1 C 0,0 km/h (0 Bft) 0,00 %
24.09.2015 06:42 9,1 C 99 % 1020,0 hPa 0,0 l/m 0,0 km/h (0 Bft) O 92 0 min 0,000 mm 0,0 UV-I 0 W/m 9,0 C 9,1 C 0,0 km/h (0 Bft) 0,00 %
24.09.2015 06:47 9,1 C 99 % 1020,0 hPa 0,0 l/m 0,0 km/h (0 Bft) O 98 0 min 0,000 mm 0,0 UV-I 0 W/m 9,0 C 9,1 C 0,0 km/h (0 Bft) 0,00 %
24.09.2015 06:52 9,1 C 99 % 1020,3 hPa 0,0 l/m 0,0 km/h (0 Bft) O 101 0 min 0,000 mm 0,0 UV-I 0 W/m 9,0 C 9,1 C 0,0 km/h (0 Bft) 0,00 %
24.09.2015 06:57 9,1 C 99 % 1020,2 hPa 0,0 l/m 0,0 km/h (0 Bft) O-SO 112 0 min 0,000 mm 0,0 UV-I 0 W/m 9,0 C 9,1 C 0,0 km/h (0 Bft) 0,00 %
24.09.2015 07:02 9,1 C 99 % 1020,3 hPa 0,0 l/m 0,0 km/h (0 Bft) O-SO 106 0 min 0,000 mm 0,0 UV-I 0 W/m 9,0 C 9,1 C 0,0 km/h (0 Bft) 0,00 %
24.09.2015 07:07 9,1 C 99 % 1020,4 hPa 0,0 l/m 0,0 km/h (0 Bft) O-NO 62 0 min 0,000 mm 0,0 UV-I 0 W/m 9,0 C 9,1 C 0,0 km/h (0 Bft) 0,00 %
24.09.2015 07:12 9,2 C 99 % 1020,2 hPa 0,0 l/m 0,0 km/h (0 Bft) O 85 0 min 0,000 mm 0,0 UV-I 0 W/m 9,1 C 9,2 C 0,0 km/h (0 Bft) 0,00 %
24.09.2015 07:17 9,2 C 99 % 1020,2 hPa 0,0 l/m 0,0 km/h (0 Bft) O-SO 104 0 min 0,000 mm 0,0 UV-I 0 W/m 9,1 C 9,2 C 0,0 km/h (0 Bft) 0,00 %
24.09.2015 07:22 9,2 C 99 % 1020,6 hPa 0,0 l/m 0,0 km/h (0 Bft) S-SO 166 0 min 0,000 mm 0,0 UV-I 0 W/m 9,1 C 9,2 C 0,0 km/h (0 Bft) 0,00 %
24.09.2015 07:27 9,2 C 99 % 1020,5 hPa 0,0 l/m 0,0 km/h (0 Bft) SO 146 0 min 0,000 mm 0,0 UV-I 0 W/m 9,1 C 9,2 C 0,0 km/h (0 Bft) 0,00 %
24.09.2015 07:32 9,3 C 99 % 1020,5 hPa 0,0 l/m 0,0 km/h (0 Bft) O 101 0 min 0,000 mm 0,0 UV-I 0 W/m 9,2 C 9,3 C 0,0 km/h (0 Bft) 0,00 %
24.09.2015 07:37 9,3 C 99 % 1020,6 hPa 0,0 l/m 0,0 km/h (0 Bft) O-SO 104 0 min 0,000 mm 0,0 UV-I 1 W/m 9,2 C 9,3 C 0,0 km/h (0 Bft) 0,00 %
24.09.2015 07:42 9,3 C 99 % 1020,6 hPa 0,0 l/m 0,0 km/h (0 Bft) S 189 0 min 0,000 mm 0,0 UV-I 5 W/m 9,2 C 9,3 C 0,0 km/h (0 Bft) 0,00 %
24.09.2015 07:47 9,3 C 99 % 1020,7 hPa 0,0 l/m 0,0 km/h (0 Bft) S 174 0 min 0,000 mm 0,0 UV-I 6 W/m 9,2 C 9,3 C 0,0 km/h (0 Bft) 0,00 %
24.09.2015 07:52 9,3 C 99 % 1020,7 hPa 0,0 l/m 0,0 km/h (0 Bft) O-NO 76 0 min 0,000 mm 0,0 UV-I 10 W/m 9,2 C 9,3 C 0,0 km/h (0 Bft) 0,00 %
24.09.2015 07:57 9,3 C 99 % 1020,8 hPa 0,0 l/m 0,0 km/h (0 Bft) S 174 0 min 0,000 mm 0,0 UV-I 16 W/m 9,2 C 9,3 C 0,0 km/h (0 Bft) 0,00 %
24.09.2015 08:02 9,3 C 99 % 1020,4 hPa 0,0 l/m 0,0 km/h (0 Bft) O 98 0 min 0,000 mm 0,0 UV-I 23 W/m 9,2 C 9,3 C 0,0 km/h (0 Bft) 0,00 %
24.09.2015 08:07 9,4 C 99 % 1020,4 hPa 0,0 l/m 0,0 km/h (0 Bft) S 186 0 min 0,000 mm 0,0 UV-I 12 W/m 9,3 C 9,4 C 0,0 km/h (0 Bft) 0,00 %
24.09.2015 08:12 9,4 C 99 % 1020,6 hPa 0,0 l/m 0,0 km/h (0 Bft) O-NO 75 0 min 0,000 mm 0,0 UV-I 19 W/m 9,3 C 9,4 C 0,0 km/h (0 Bft) 0,00 %
24.09.2015 08:17 9,5 C 99 % 1020,3 hPa 0,0 l/m 0,0 km/h (0 Bft) S-SW 211 0 min 0,000 mm 0,0 UV-I 18 W/m 9,4 C 9,5 C 0,0 km/h (0 Bft) 0,00 %
24.09.2015 08:22 9,5 C 99 % 1020,3 hPa 0,0 l/m 0,0 km/h (0 Bft) O 88 0 min 0,000 mm 0,0 UV-I 20 W/m 9,4 C 9,5 C 0,0 km/h (0 Bft) 0,00 %
24.09.2015 08:27 9,5 C 99 % 1020,4 hPa 0,0 l/m 0,0 km/h (0 Bft) SO 127 0 min 0,000 mm 0,0 UV-I 25 W/m 9,4 C 9,5 C 0,0 km/h (0 Bft) 0,00 %
24.09.2015 08:32 9,5 C 99 % 1020,6 hPa 0,0 l/m 0,0 km/h (0 Bft) SO 130 0 min 0,000 mm 0,0 UV-I 36 W/m 9,4 C 9,5 C 0,0 km/h (0 Bft) 0,00 %
24.09.2015 08:37 9,5 C 99 % 1020,6 hPa 0,0 l/m 0,0 km/h (0 Bft) S-SO 147 0 min 0,000 mm 0,0 UV-I 46 W/m 9,4 C 9,5 C 0,0 km/h (0 Bft) 0,00 %
24.09.2015 08:42 9,5 C 99 % 1020,5 hPa 0,0 l/m 0,0 km/h (0 Bft) O 93 0 min 0,000 mm 0,0 UV-I 53 W/m 9,4 C 9,5 C 0,0 km/h (0 Bft) 0,00 %
24.09.2015 08:47 9,5 C 99 % 1020,6 hPa 0,0 l/m 0,0 km/h (0 Bft) S 185 0 min 0,000 mm 0,0 UV-I 56 W/m 9,4 C 9,5 C 0,0 km/h (0 Bft) 0,00 %
24.09.2015 08:52 9,7 C 99 % 1020,7 hPa 0,0 l/m 0,0 km/h (0 Bft) S 174 0 min 0,000 mm 0,0 UV-I 40 W/m 9,6 C 9,7 C 0,0 km/h (0 Bft) 0,00 %
24.09.2015 08:57 9,7 C 99 % 1020,7 hPa 0,0 l/m 0,7 km/h (0 Bft) S 190 0 min 0,000 mm 0,0 UV-I 53 W/m 9,6 C 9,7 C 4,0 km/h (1 Bft) 0,00 %
24.09.2015 09:02 9,7 C 99 % 1020,8 hPa 0,0 l/m 0,0 km/h (0 Bft) NO 42 0 min 0,000 mm 0,0 UV-I 37 W/m 9,6 C 9,7 C 0,0 km/h (0 Bft) 0,00 %
24.09.2015 09:07 9,7 C 99 % 1021,0 hPa 0,0 l/m 0,0 km/h (0 Bft) S 182 0 min 0,000 mm 0,0 UV-I 35 W/m 9,6 C 9,7 C 0,0 km/h (0 Bft) 0,00 %
24.09.2015 09:12 9,7 C 99 % 1021,0 hPa 0,0 l/m 0,0 km/h (0 Bft) S 177 0 min 0,000 mm 0,0 UV-I 44 W/m 9,6 C 9,7 C 0,0 km/h (0 Bft) 0,00 %
24.09.2015 09:17 9,7 C 99 % 1020,8 hPa 0,0 l/m 0,0 km/h (0 Bft) S 176 0 min 0,000 mm 0,0 UV-I 53 W/m 9,6 C 9,7 C 0,0 km/h (0 Bft) 0,00 %
24.09.2015 09:22 9,7 C 99 % 1020,9 hPa 0,0 l/m 0,0 km/h (0 Bft) O-SO 122 0 min 0,000 mm 0,0 UV-I 76 W/m 9,6 C 9,7 C 0,0 km/h (0 Bft) 0,00 %
24.09.2015 09:27 9,8 C 99 % 1021,0 hPa 0,3 l/m 1,8 km/h (1 Bft) S 187 0 min 0,000 mm 0,0 UV-I 75 W/m 9,7 C 9,8 C 4,0 km/h (1 Bft) 0,00 %
24.09.2015 09:32 9,8 C 99 % 1021,0 hPa 0,0 l/m 2,9 km/h (1 Bft) S-SW 192 0 min 0,000 mm 0,0 UV-I 67 W/m 9,7 C 9,8 C 4,0 km/h (1 Bft) 0,00 %
24.09.2015 09:37 9,8 C 99 % 1021,0 hPa 0,0 l/m 0,0 km/h (0 Bft) O 87 0 min 0,000 mm 0,0 UV-I 98 W/m 9,7 C 9,8 C 0,0 km/h (0 Bft) 0,00 %
24.09.2015 09:42 9,8 C 98 % 1021,3 hPa 0,0 l/m 0,0 km/h (0 Bft) S 182 0 min 0,000 mm 0,0 UV-I 66 W/m 9,5 C 9,8 C 0,0 km/h (0 Bft) 0,00 %
24.09.2015 09:47 9,9 C 98 % 1021,1 hPa 0,0 l/m 0,0 km/h (0 Bft) O-NO 69 0 min 0,000 mm 0,0 UV-I 82 W/m 9,6 C 9,9 C 0,0 km/h (0 Bft) 0,00 %
24.09.2015 09:52 10,0 C 98 % 1021,3 hPa 0,0 l/m 0,0 km/h (0 Bft) SO 131 0 min 0,000 mm 0,0 UV-I 84 W/m 9,7 C 10,0 C 0,0 km/h (0 Bft) 0,00 %
24.09.2015 09:57 10,0 C 98 % 1020,8 hPa 0,0 l/m 0,0 km/h (0 Bft) S 173 0 min 0,000 mm 0,0 UV-I 123 W/m 9,7 C 10,0 C 0,0 km/h (0 Bft) 0,00 %
24.09.2015 10:02 10,1 C 98 % 1020,7 hPa 0,0 l/m 4,3 km/h (1 Bft) S-SW 206 0 min 0,000 mm 1,0 UV-I 148 W/m 9,8 C 10,1 C 7,9 km/h (2 Bft) 0,00 %
24.09.2015 10:07 10,2 C 98 % 1020,7 hPa 0,0 l/m 0,4 km/h (0 Bft) NO 55 0 min 0,000 mm 1,0 UV-I 181 W/m 9,9 C 10,2 C 4,0 km/h (1 Bft) 0,00 %
24.09.2015 10:12 10,3 C 98 % 1021,0 hPa 0,0 l/m 4,0 km/h (1 Bft) S-SW 193 0 min 0,000 mm 1,0 UV-I 172 W/m 10,0 C 10,3 C 7,9 km/h (2 Bft) 0,00 %
24.09.2015 10:17 10,4 C 98 % 1021,0 hPa 0,0 l/m 0,4 km/h (0 Bft) O-NO 73 0 min 0,000 mm 1,0 UV-I 166 W/m 10,1 C 10,4 C 4,0 km/h (1 Bft) 0,00 %
24.09.2015 10:22 10,5 C 98 % 1020,9 hPa 0,0 l/m 5,8 km/h (2 Bft) S 172 0 min 0,000 mm 1,0 UV-I 171 W/m 10,2 C 10,5 C 7,9 km/h (2 Bft) 0,00 %
24.09.2015 10:27 10,6 C 98 % 1020,6 hPa 0,0 l/m 0,0 km/h (0 Bft) S 173 0 min 0,000 mm 1,0 UV-I 195 W/m 10,3 C 10,6 C 0,0 km/h (0 Bft) 0,00 %
24.09.2015 10:32 10,8 C 97 % 1020,6 hPa 0,0 l/m 0,7 km/h (0 Bft) S-SW 197 0 min 0,000 mm 1,0 UV-I 213 W/m 10,3 C 10,8 C 4,0 km/h (1 Bft) 0,00 %
24.09.2015 10:37 10,9 C 97 % 1020,9 hPa 0,0 l/m 4,0 km/h (1 Bft) S-SW 192 0 min 0,000 mm 1,0 UV-I 175 W/m 10,4 C 10,9 C 7,9 km/h (2 Bft) 0,00 %
24.09.2015 10:42 11,0 C 98 % 1020,9 hPa 0,0 l/m 0,0 km/h (0 Bft) NO 38 0 min 0,000 mm 1,0 UV-I 161 W/m 10,7 C 11,0 C 0,0 km/h (0 Bft) 0,00 %
24.09.2015 10:47 11,0 C 97 % 1020,6 hPa 0,0 l/m 2,2 km/h (1 Bft) S 179 0 min 0,000 mm 1,0 UV-I 182 W/m 10,5 C 11,0 C 4,0 km/h (1 Bft) 0,00 %
24.09.2015 10:52 11,0 C 97 % 1020,8 hPa 0,0 l/m 0,0 km/h (0 Bft) SO 131 0 min 0,000 mm 1,0 UV-I 205 W/m 10,5 C 11,0 C 0,0 km/h (0 Bft) 0,00 %
24.09.2015 10:57 11,1 C 97 % 1021,2 hPa 0,0 l/m 9,0 km/h (2 Bft) S 190 0 min 0,000 mm 1,0 UV-I 181 W/m 10,6 C 9,4 C 11,9 km/h (2 Bft) 0,00 %
24.09.2015 11:02 11,2 C 97 % 1021,0 hPa 0,0 l/m 1,4 km/h (1 Bft) SW 214 0 min 0,000 mm 1,0 UV-I 203 W/m 10,7 C 11,2 C 4,0 km/h (1 Bft) 0,00 %
24.09.2015 11:07 11,3 C 97 % 1021,2 hPa 0,0 l/m 2,9 km/h (1 Bft) S-SW 199 0 min 0,000 mm 1,0 UV-I 170 W/m 10,8 C 11,3 C 4,0 km/h (1 Bft) 0,00 %
24.09.2015 11:12 11,3 C 97 % 1021,5 hPa 0,0 l/m 1,8 km/h (1 Bft) W-SW 239 0 min 0,000 mm 1,0 UV-I 154 W/m 10,8 C 11,3 C 4,0 km/h (1 Bft) 0,00 %
24.09.2015 11:17 11,3 C 97 % 1021,2 hPa 0,0 l/m 0,7 km/h (0 Bft) W-SW 256 0 min 0,000 mm 1,0 UV-I 214 W/m 10,8 C 11,3 C 4,0 km/h (1 Bft) 0,00 %
24.09.2015 11:22 11,3 C 97 % 1021,2 hPa 0,0 l/m 0,0 km/h (0 Bft) O-SO 114 0 min 0,000 mm 1,0 UV-I 214 W/m 10,8 C 11,3 C 0,0 km/h (0 Bft) 0,00 %
24.09.2015 11:27 11,4 C 97 % 1021,3 hPa 0,0 l/m 0,0 km/h (0 Bft) SO 144 0 min 0,000 mm 1,0 UV-I 184 W/m 10,9 C 11,4 C 0,0 km/h (0 Bft) 0,00 %
24.09.2015 11:32 11,6 C 97 % 1021,3 hPa 0,0 l/m 1,8 km/h (1 Bft) S-SW 194 0 min 0,000 mm 1,0 UV-I 210 W/m 11,1 C 11,6 C 4,0 km/h (1 Bft) 0,00 %
24.09.2015 11:37 11,6 C 97 % 1021,5 hPa 0,0 l/m 1,8 km/h (1 Bft) S-SW 196 0 min 0,000 mm 1,0 UV-I 167 W/m 11,1 C 11,6 C 4,0 km/h (1 Bft) 0,00 %
24.09.2015 11:42 11,5 C 97 % 1021,6 hPa 0,0 l/m 7,9 km/h (2 Bft) S-SW 208 0 min 0,000 mm 1,0 UV-I 163 W/m 11,0 C 10,5 C 11,9 km/h (2 Bft) 0,00 %
24.09.2015 11:47 11,4 C 97 % 1021,5 hPa 0,0 l/m 0,0 km/h (0 Bft) S-SW 211 0 min 0,000 mm 1,0 UV-I 184 W/m 10,9 C 11,4 C 0,0 km/h (0 Bft) 0,00 %
24.09.2015 11:52 11,4 C 97 % 1020,9 hPa 0,0 l/m 6,8 km/h (2 Bft) S 185 0 min 0,000 mm 1,0 UV-I 340 W/m 10,9 C 11,1 C 7,9 km/h (2 Bft) 0,00 %
24.09.2015 11:57 11,7 C 99 % 1020,9 hPa 0,0 l/m 4,3 km/h (1 Bft) SW 223 0 min 0,000 mm 2,0 UV-I 304 W/m 11,5 C 11,7 C 7,9 km/h (2 Bft) 0,00 %
24.09.2015 12:02 12,0 C 99 % 1021,6 hPa 0,0 l/m 0,0 km/h (0 Bft) O-SO 108 0 min 0,000 mm 1,0 UV-I 174 W/m 11,8 C 12,0 C 0,0 km/h (0 Bft) 0,00 %
24.09.2015 12:07 12,2 C 99 % 1021,5 hPa 0,0 l/m 4,0 km/h (1 Bft) W-SW 255 0 min 0,000 mm 1,0 UV-I 200 W/m 12,0 C 12,2 C 7,9 km/h (2 Bft) 0,00 %
24.09.2015 12:12 12,1 C 99 % 1021,4 hPa 0,0 l/m 2,2 km/h (1 Bft) S-SW 210 0 min 0,000 mm 1,0 UV-I 203 W/m 11,9 C 12,1 C 4,0 km/h (1 Bft) 0,00 %
24.09.2015 12:17 12,0 C 97 % 1021,5 hPa 0,0 l/m 4,3 km/h (1 Bft) S-SW 205 0 min 0,000 mm 1,0 UV-I 208 W/m 11,5 C 12,0 C 7,9 km/h (2 Bft) 0,00 %
24.09.2015 12:22 11,9 C 99 % 1021,5 hPa 0,0 l/m 7,2 km/h (2 Bft) S-SW 205 0 min 0,000 mm 1,0 UV-I 221 W/m 11,7 C 11,4 C 11,9 km/h (2 Bft) 0,00 %
24.09.2015 12:27 11,9 C 99 % 1021,4 hPa 0,0 l/m 1,8 km/h (1 Bft) SW 225 0 min 0,000 mm 1,0 UV-I 201 W/m 11,7 C 11,9 C 4,0 km/h (1 Bft) 0,00 %
24.09.2015 12:32 12,0 C 99 % 1021,3 hPa 0,0 l/m 0,4 km/h (0 Bft) N 351 0 min 0,000 mm 1,0 UV-I 253 W/m 11,8 C 12,0 C 4,0 km/h (1 Bft) 0,00 %
24.09.2015 12:37 12,0 C 99 % 1021,5 hPa 0,0 l/m 6,5 km/h (2 Bft) S-SW 210 0 min 0,000 mm 1,0 UV-I 262 W/m 11,8 C 12,0 C 7,9 km/h (2 Bft) 0,00 %
24.09.2015 12:42 12,1 C 99 % 1021,5 hPa 0,0 l/m 2,2 km/h (1 Bft) S 175 0 min 0,000 mm 1,0 UV-I 227 W/m 11,9 C 12,1 C 4,0 km/h (1 Bft) 0,00 %
24.09.2015 12:47 12,2 C 99 % 1021,4 hPa 0,0 l/m 1,8 km/h (1 Bft) S-SW 200 0 min 0,000 mm 1,0 UV-I 211 W/m 12,0 C 12,2 C 4,0 km/h (1 Bft) 0,00 %
24.09.2015 12:52 12,4 C 99 % 1021,6 hPa 0,0 l/m 1,4 km/h (1 Bft) O-SO 102 0 min 0,000 mm 1,0 UV-I 186 W/m 12,2 C 12,4 C 4,0 km/h (1 Bft) 0,00 %
24.09.2015 12:57 12,3 C 98 % 1021,4 hPa 0,0 l/m 4,0 km/h (1 Bft) S 186 0 min 0,000 mm 1,0 UV-I 148 W/m 12,0 C 12,3 C 7,9 km/h (2 Bft) 0,00 %
24.09.2015 13:02 12,2 C 97 % 1021,6 hPa 0,0 l/m 0,4 km/h (0 Bft) W-SW 251 0 min 0,000 mm 1,0 UV-I 154 W/m 11,7 C 12,2 C 4,0 km/h (1 Bft) 0,00 %
24.09.2015 13:07 12,0 C 97 % 1021,4 hPa 0,0 l/m 1,4 km/h (1 Bft) N-NO 18 0 min 0,000 mm 1,0 UV-I 146 W/m 11,5 C 12,0 C 4,0 km/h (1 Bft) 0,00 %
24.09.2015 13:12 12,0 C 97 % 1021,3 hPa 0,0 l/m 4,7 km/h (1 Bft) S-SW 194 0 min 0,000 mm 1,0 UV-I 134 W/m 11,5 C 12,0 C 7,9 km/h (2 Bft) 0,00 %
24.09.2015 13:17 11,9 C 97 % 1021,4 hPa 0,0 l/m 0,0 km/h (0 Bft) O-SO 116 0 min 0,000 mm 1,0 UV-I 111 W/m 11,4 C 11,9 C 0,0 km/h (0 Bft) 0,00 %
24.09.2015 13:22 11,9 C 96 % 1021,3 hPa 0,0 l/m 1,8 km/h (1 Bft) N-NW 342 0 min 0,000 mm 1,0 UV-I 97 W/m 11,3 C 11,9 C 7,9 km/h (2 Bft) 0,00 %
24.09.2015 13:27 11,9 C 97 % 1021,4 hPa 0,0 l/m 0,0 km/h (0 Bft) O 98 0 min 0,000 mm 1,0 UV-I 99 W/m 11,4 C 11,9 C 0,0 km/h (0 Bft) 0,00 %
24.09.2015 13:32 11,9 C 97 % 1021,4 hPa 0,0 l/m 0,0 km/h (0 Bft) S-SW 194 0 min 0,000 mm 1,0 UV-I 120 W/m 11,4 C 11,9 C 0,0 km/h (0 Bft) 0,00 %
24.09.2015 13:37 11,9 C 96 % 1021,3 hPa 0,0 l/m 0,0 km/h (0 Bft) SW 219 0 min 0,000 mm 1,0 UV-I 153 W/m 11,3 C 11,9 C 0,0 km/h (0 Bft) 0,00 %
24.09.2015 13:42 11,9 C 95 % 1021,2 hPa 0,0 l/m 1,8 km/h (1 Bft) NO 51 0 min 0,000 mm 1,0 UV-I 157 W/m 11,1 C 11,9 C 4,0 km/h (1 Bft) 0,00 %
24.09.2015 13:47 12,0 C 95 % 1021,4 hPa 0,0 l/m 0,0 km/h (0 Bft) O 85 0 min 0,000 mm 1,0 UV-I 161 W/m 11,2 C 12,0 C 0,0 km/h (0 Bft) 0,00 %
24.09.2015 13:52 12,0 C 95 % 1021,2 hPa 0,0 l/m 3,2 km/h (1 Bft) S 185 0 min 0,000 mm 1,0 UV-I 200 W/m 11,2 C 12,0 C 7,9 km/h (2 Bft) 0,00 %
24.09.2015 13:57 12,1 C 95 % 1021,2 hPa 0,0 l/m 0,4 km/h (0 Bft) SO 141 0 min 0,000 mm 1,0 UV-I 176 W/m 11,3 C 12,1 C 4,0 km/h (1 Bft) 0,00 %
24.09.2015 14:02 12,2 C 94 % 1021,1 hPa 0,0 l/m 1,8 km/h (1 Bft) SO 140 0 min 0,000 mm 1,0 UV-I 206 W/m 11,3 C 12,2 C 4,0 km/h (1 Bft) 0,00 %
24.09.2015 14:07 12,3 C 94 % 1021,2 hPa 0,0 l/m 4,3 km/h (1 Bft) S-SW 206 0 min 0,000 mm 1,0 UV-I 210 W/m 11,4 C 12,3 C 7,9 km/h (2 Bft) 0,00 %
24.09.2015 14:12 12,4 C 93 % 1021,2 hPa 0,0 l/m 2,9 km/h (1 Bft) S 178 0 min 0,000 mm 1,0 UV-I 196 W/m 11,3 C 12,4 C 4,0 km/h (1 Bft) 0,00 %
24.09.2015 14:17 12,4 C 93 % 1021,2 hPa 0,0 l/m 0,0 km/h (0 Bft) S 185 0 min 0,000 mm 1,0 UV-I 165 W/m 11,3 C 12,4 C 0,0 km/h (0 Bft) 0,00 %
24.09.2015 14:22 12,5 C 92 % 1021,3 hPa 0,0 l/m 5,8 km/h (2 Bft) S 179 0 min 0,000 mm 1,0 UV-I 153 W/m 11,2 C 12,5 C 7,9 km/h (2 Bft) 0,00 %
24.09.2015 14:27 12,4 C 92 % 1021,3 hPa 0,0 l/m 2,2 km/h (1 Bft) S 189 0 min 0,000 mm 1,0 UV-I 137 W/m 11,1 C 12,4 C 4,0 km/h (1 Bft) 0,00 %
24.09.2015 14:32 12,3 C 92 % 1021,2 hPa 0,0 l/m 2,9 km/h (1 Bft) SW 230 0 min 0,000 mm 1,0 UV-I 145 W/m 11,0 C 12,3 C 4,0 km/h (1 Bft) 0,00 %
24.09.2015 14:37 12,3 C 92 % 1021,1 hPa 0,0 l/m 0,0 km/h (0 Bft) O 79 0 min 0,000 mm 1,0 UV-I 159 W/m 11,0 C 12,3 C 0,0 km/h (0 Bft) 0,00 %
24.09.2015 14:42 12,4 C 91 % 1021,2 hPa 0,0 l/m 2,9 km/h (1 Bft) S-SW 201 0 min 0,000 mm 1,0 UV-I 159 W/m 11,0 C 12,4 C 4,0 km/h (1 Bft) 0,00 %
24.09.2015 14:47 12,4 C 91 % 1021,1 hPa 0,0 l/m 4,0 km/h (1 Bft) S-SW 205 0 min 0,000 mm 1,0 UV-I 180 W/m 11,0 C 12,4 C 7,9 km/h (2 Bft) 0,00 %
24.09.2015 14:52 12,5 C 90 % 1021,1 hPa 0,0 l/m 0,4 km/h (0 Bft) SO 127 0 min 0,000 mm 1,0 UV-I 190 W/m 10,9 C 12,5 C 4,0 km/h (1 Bft) 0,00 %
24.09.2015 14:57 12,6 C 90 % 1020,9 hPa 0,0 l/m 0,0 km/h (0 Bft) S 182 0 min 0,000 mm 1,0 UV-I 192 W/m 11,0 C 12,6 C 0,0 km/h (0 Bft) 0,00 %
24.09.2015 15:02 12,7 C 89 % 1020,9 hPa 0,0 l/m 0,0 km/h (0 Bft) S-SO 158 0 min 0,000 mm 1,0 UV-I 182 W/m 10,9 C 12,7 C 0,0 km/h (0 Bft) 0,00 %
24.09.2015 15:07 12,8 C 89 % 1021,0 hPa 0,0 l/m 0,7 km/h (0 Bft) S-SW 210 0 min 0,000 mm 1,0 UV-I 172 W/m 11,0 C 12,8 C 4,0 km/h (1 Bft) 0,00 %
24.09.2015 15:12 13,0 C 88 % 1020,9 hPa 0,0 l/m 0,4 km/h (0 Bft) O-NO 66 0 min 0,000 mm 1,0 UV-I 183 W/m 11,1 C 13,0 C 4,0 km/h (1 Bft) 0,00 %
24.09.2015 15:17 13,0 C 87 % 1020,7 hPa 0,0 l/m 0,0 km/h (0 Bft) S 175 0 min 0,000 mm 1,0 UV-I 276 W/m 10,9 C 13,0 C 0,0 km/h (0 Bft) 0,00 %
24.09.2015 15:22 13,0 C 86 % 1020,3 hPa 0,0 l/m 1,8 km/h (1 Bft) S 177 5 min 0,000 mm 1,0 UV-I 314 W/m 10,7 C 13,0 C 4,0 km/h (1 Bft) 0,00 %
24.09.2015 15:27 13,0 C 85 % 1020,3 hPa 0,0 l/m 0,0 km/h (0 Bft) O-NO 67 0 min 0,000 mm 1,0 UV-I 281 W/m 10,5 C 13,0 C 0,0 km/h (0 Bft) 0,00 %
24.09.2015 15:32 13,2 C 85 % 1020,8 hPa 0,0 l/m 2,2 km/h (1 Bft) SW 227 5 min 0,000 mm 1,0 UV-I 312 W/m 10,7 C 13,2 C 4,0 km/h (1 Bft) 0,00 %
24.09.2015 15:37 13,5 C 84 % 1020,8 hPa 0,0 l/m 0,0 km/h (0 Bft) NO 56 0 min 0,000 mm 1,0 UV-I 223 W/m 10,8 C 13,5 C 0,0 km/h (0 Bft) 0,00 %
24.09.2015 15:42 13,6 C 83 % 1020,8 hPa 0,0 l/m 0,0 km/h (0 Bft) O 101 0 min 0,000 mm 1,0 UV-I 192 W/m 10,8 C 13,6 C 0,0 km/h (0 Bft) 0,00 %
24.09.2015 15:47 13,6 C 83 % 1020,8 hPa 0,0 l/m 2,9 km/h (1 Bft) S 187 0 min 0,000 mm 1,0 UV-I 169 W/m 10,8 C 13,6 C 4,0 km/h (1 Bft) 0,00 %
24.09.2015 15:52 13,4 C 83 % 1020,9 hPa 0,0 l/m 0,0 km/h (0 Bft) W-SW 256 0 min 0,000 mm 1,0 UV-I 168 W/m 10,6 C 13,4 C 0,0 km/h (0 Bft) 0,00 %
24.09.2015 15:57 13,3 C 83 % 1020,7 hPa 0,0 l/m 4,3 km/h (1 Bft) S 185 0 min 0,000 mm 1,0 UV-I 167 W/m 10,5 C 13,3 C 7,9 km/h (2 Bft) 0,00 %
24.09.2015 16:02 13,2 C 83 % 1020,7 hPa 0,0 l/m 0,7 km/h (0 Bft) N 350 0 min 0,000 mm 1,0 UV-I 159 W/m 10,4 C 13,2 C 4,0 km/h (1 Bft) 0,00 %
24.09.2015 16:07 13,2 C 83 % 1020,6 hPa 0,0 l/m 0,4 km/h (0 Bft) S-SW 209 0 min 0,000 mm 1,0 UV-I 156 W/m 10,4 C 13,2 C 4,0 km/h (1 Bft) 0,00 %
24.09.2015 16:12 13,2 C 83 % 1020,8 hPa 0,0 l/m 0,4 km/h (0 Bft) O-SO 104 0 min 0,000 mm 1,0 UV-I 163 W/m 10,4 C 13,2 C 4,0 km/h (1 Bft) 0,00 %
24.09.2015 16:17 13,2 C 83 % 1020,8 hPa 0,0 l/m 1,4 km/h (1 Bft) S-SW 206 0 min 0,000 mm 1,0 UV-I 164 W/m 10,4 C 13,2 C 4,0 km/h (1 Bft) 0,00 %
24.09.2015 16:22 13,2 C 83 % 1020,8 hPa 0,0 l/m 0,4 km/h (0 Bft) S 175 0 min 0,000 mm 1,0 UV-I 144 W/m 10,4 C 13,2 C 4,0 km/h (1 Bft) 0,00 %
24.09.2015 16:27 13,2 C 82 % 1021,0 hPa 0,0 l/m 1,8 km/h (1 Bft) S 181 0 min 0,000 mm 1,0 UV-I 146 W/m 10,2 C 13,2 C 4,0 km/h (1 Bft) 0,00 %
24.09.2015 16:32 13,3 C 83 % 1020,7 hPa 0,0 l/m 0,0 km/h (0 Bft) O 85 0 min 0,000 mm 1,0 UV-I 168 W/m 10,5 C 13,3 C 0,0 km/h (0 Bft) 0,00 %
24.09.2015 16:37 13,4 C 83 % 1020,8 hPa 0,0 l/m 0,0 km/h (0 Bft) SO 135 0 min 0,000 mm 1,0 UV-I 197 W/m 10,6 C 13,4 C 0,0 km/h (0 Bft) 0,00 %
24.09.2015 16:42 13,5 C 82 % 1020,6 hPa 0,0 l/m 2,9 km/h (1 Bft) SW 216 0 min 0,000 mm 1,0 UV-I 186 W/m 10,5 C 13,5 C 4,0 km/h (1 Bft) 0,00 %
24.09.2015 16:47 13,5 C 82 % 1020,8 hPa 0,0 l/m 0,0 km/h (0 Bft) S-SW 194 0 min 0,000 mm 1,0 UV-I 169 W/m 10,5 C 13,5 C 0,0 km/h (0 Bft) 0,00 %
24.09.2015 16:52 13,5 C 83 % 1020,7 hPa 0,0 l/m 0,0 km/h (0 Bft) O-NO 63 0 min 0,000 mm 1,0 UV-I 151 W/m 10,7 C 13,5 C 0,0 km/h (0 Bft) 0,00 %
24.09.2015 16:57 13,6 C 83 % 1020,8 hPa 0,0 l/m 2,2 km/h (1 Bft) S 188 0 min 0,000 mm 1,0 UV-I 162 W/m 10,8 C 13,6 C 4,0 km/h (1 Bft) 0,00 %
24.09.2015 17:02 13,6 C 82 % 1020,8 hPa 0,0 l/m 0,0 km/h (0 Bft) S-SW 193 0 min 0,000 mm 1,0 UV-I 139 W/m 10,6 C 13,6 C 0,0 km/h (0 Bft) 0,00 %
24.09.2015 17:07 13,5 C 82 % 1020,9 hPa 0,0 l/m 0,7 km/h (0 Bft) SW 221 0 min 0,000 mm 1,0 UV-I 121 W/m 10,5 C 13,5 C 4,0 km/h (1 Bft) 0,00 %
24.09.2015 17:12 13,4 C 82 % 1020,8 hPa 0,0 l/m 4,3 km/h (1 Bft) S 189 0 min 0,000 mm 1,0 UV-I 126 W/m 10,4 C 13,4 C 7,9 km/h (2 Bft) 0,00 %
24.09.2015 17:17 13,3 C 83 % 1020,7 hPa 0,0 l/m 0,7 km/h (0 Bft) S-SW 201 0 min 0,000 mm 1,0 UV-I 122 W/m 10,5 C 13,3 C 4,0 km/h (1 Bft) 0,00 %
24.09.2015 17:22 13,3 C 82 % 1020,8 hPa 0,0 l/m 0,0 km/h (0 Bft) O-SO 122 0 min 0,000 mm 1,0 UV-I 116 W/m 10,3 C 13,3 C 0,0 km/h (0 Bft) 0,00 %
24.09.2015 17:27 13,2 C 82 % 1020,7 hPa 0,0 l/m 0,0 km/h (0 Bft) O-NO 59 5 min 0,000 mm 1,0 UV-I 142 W/m 10,2 C 13,2 C 0,0 km/h (0 Bft) 0,00 %
24.09.2015 17:32 13,2 C 82 % 1020,7 hPa 0,0 l/m 0,0 km/h (0 Bft) S-SW 207 5 min 0,000 mm 1,0 UV-I 149 W/m 10,2 C 13,2 C 0,0 km/h (0 Bft) 0,00 %
24.09.2015 17:37 13,3 C 82 % 1020,5 hPa 0,0 l/m 0,7 km/h (0 Bft) O 91 5 min 0,000 mm 1,0 UV-I 152 W/m 10,3 C 13,3 C 4,0 km/h (1 Bft) 0,00 %
24.09.2015 17:42 13,3 C 82 % 1020,5 hPa 0,0 l/m 0,0 km/h (0 Bft) O-NO 58 5 min 0,000 mm 1,0 UV-I 128 W/m 10,3 C 13,3 C 0,0 km/h (0 Bft) 0,00 %
24.09.2015 17:47 13,4 C 82 % 1020,6 hPa 0,0 l/m 0,0 km/h (0 Bft) NO 54 5 min 0,000 mm 0,0 UV-I 108 W/m 10,4 C 13,4 C 0,0 km/h (0 Bft) 0,00 %
24.09.2015 17:52 13,4 C 82 % 1020,7 hPa 0,0 l/m 0,0 km/h (0 Bft) O 80 0 min 0,000 mm 0,0 UV-I 90 W/m 10,4 C 13,4 C 0,0 km/h (0 Bft) 0,00 %
24.09.2015 17:57 13,3 C 81 % 1020,6 hPa 0,0 l/m 2,9 km/h (1 Bft) S 176 0 min 0,000 mm 0,0 UV-I 76 W/m 10,1 C 13,3 C 4,0 km/h (1 Bft) 0,00 %
24.09.2015 18:02 13,2 C 82 % 1020,8 hPa 0,0 l/m 0,0 km/h (0 Bft) S 184 0 min 0,000 mm 0,0 UV-I 58 W/m 10,2 C 13,2 C 0,0 km/h (0 Bft) 0,00 %
24.09.2015 18:07 13,2 C 81 % 1020,7 hPa 0,0 l/m 0,7 km/h (0 Bft) S-SW 202 0 min 0,000 mm 0,0 UV-I 42 W/m 10,0 C 13,2 C 4,0 km/h (1 Bft) 0,00 %
24.09.2015 18:12 13,1 C 81 % 1020,9 hPa 0,0 l/m 0,0 km/h (0 Bft) SO 139 0 min 0,000 mm 0,0 UV-I 26 W/m 9,9 C 13,1 C 0,0 km/h (0 Bft) 0,00 %
24.09.2015 18:17 13,0 C 83 % 1020,8 hPa 0,0 l/m 0,4 km/h (0 Bft) O 81 0 min 0,000 mm 0,0 UV-I 12 W/m 10,2 C 13,0 C 4,0 km/h (1 Bft) 0,00 %
24.09.2015 18:22 12,9 C 83 % 1020,8 hPa 0,0 l/m 0,0 km/h (0 Bft) S 174 0 min 0,000 mm 0,0 UV-I 6 W/m 10,1 C 12,9 C 0,0 km/h (0 Bft) 0,00 %
24.09.2015 18:27 12,8 C 83 % 1020,9 hPa 0,0 l/m 0,0 km/h (0 Bft) O 90 0 min 0,000 mm 0,0 UV-I 3 W/m 10,0 C 12,8 C 0,0 km/h (0 Bft) 0,00 %
24.09.2015 18:32 12,7 C 84 % 1020,9 hPa 0,0 l/m 0,0 km/h (0 Bft) S-SO 166 0 min 0,000 mm 0,0 UV-I 2 W/m 10,1 C 12,7 C 0,0 km/h (0 Bft) 0,00 %
24.09.2015 18:38 12,7 C 84 % 1020,9 hPa 0,0 l/m 0,0 km/h (0 Bft) S 191 0 min 0,000 mm 0,0 UV-I 0 W/m 10,1 C 12,7 C 0,0 km/h (0 Bft) 0,00 %
24.09.2015 18:43 12,6 C 84 % 1020,9 hPa 0,0 l/m 0,0 km/h (0 Bft) O-SO 118 0 min 0,000 mm 0,0 UV-I 0 W/m 10,0 C 12,6 C 0,0 km/h (0 Bft) 0,00 %
24.09.2015 18:48 12,5 C 84 % 1021,0 hPa 0,0 l/m 0,0 km/h (0 Bft) O 82 0 min 0,000 mm 0,0 UV-I 0 W/m 9,9 C 12,5 C 0,0 km/h (0 Bft) 0,00 %
24.09.2015 18:53 12,5 C 85 % 1021,1 hPa 0,0 l/m 0,0 km/h (0 Bft) O-NO 68 0 min 0,000 mm 0,0 UV-I 0 W/m 10,0 C 12,5 C 0,0 km/h (0 Bft) 0,00 %
24.09.2015 18:58 12,5 C 85 % 1021,0 hPa 0,0 l/m 0,0 km/h (0 Bft) O 89 0 min 0,000 mm 0,0 UV-I 0 W/m 10,0 C 12,5 C 0,0 km/h (0 Bft) 0,00 %
24.09.2015 19:03 12,5 C 86 % 1021,1 hPa 0,0 l/m 0,0 km/h (0 Bft) O-NO 74 0 min 0,000 mm 0,0 UV-I 0 W/m 10,2 C 12,5 C 0,0 km/h (0 Bft) 0,00 %
24.09.2015 19:08 12,5 C 86 % 1021,1 hPa 0,0 l/m 0,0 km/h (0 Bft) O 97 0 min 0,000 mm 0,0 UV-I 0 W/m 10,2 C 12,5 C 0,0 km/h (0 Bft) 0,00 %
24.09.2015 19:13 12,4 C 86 % 1021,0 hPa 0,0 l/m 0,0 km/h (0 Bft) O-NO 75 0 min 0,000 mm 0,0 UV-I 0 W/m 10,1 C 12,4 C 0,0 km/h (0 Bft) 0,00 %
24.09.2015 19:18 12,4 C 87 % 1021,0 hPa 0,0 l/m 0,0 km/h (0 Bft) O-SO 103 0 min 0,000 mm 0,0 UV-I 0 W/m 10,3 C 12,4 C 0,0 km/h (0 Bft) 0,00 %
24.09.2015 19:23 12,4 C 87 % 1020,9 hPa 0,0 l/m 0,0 km/h (0 Bft) O-NO 67 0 min 0,000 mm 0,0 UV-I 0 W/m 10,3 C 12,4 C 0,0 km/h (0 Bft) 0,00 %
24.09.2015 19:28 12,4 C 87 % 1021,1 hPa 0,0 l/m 0,0 km/h (0 Bft) O-SO 110 0 min 0,000 mm 0,0 UV-I 0 W/m 10,3 C 12,4 C 0,0 km/h (0 Bft) 0,00 %
24.09.2015 19:33 12,3 C 87 % 1020,9 hPa 0,0 l/m 0,0 km/h (0 Bft) SO 139 0 min 0,000 mm 0,0 UV-I 0 W/m 10,2 C 12,3 C 0,0 km/h (0 Bft) 0,00 %
24.09.2015 19:38 12,3 C 87 % 1020,9 hPa 0,0 l/m 0,0 km/h (0 Bft) S 173 0 min 0,000 mm 0,0 UV-I 0 W/m 10,2 C 12,3 C 0,0 km/h (0 Bft) 0,00 %
24.09.2015 19:43 12,2 C 87 % 1021,0 hPa 0,0 l/m 0,0 km/h (0 Bft) S-SO 155 0 min 0,000 mm 0,0 UV-I 0 W/m 10,1 C 12,2 C 0,0 km/h (0 Bft) 0,00 %
24.09.2015 19:48 12,2 C 86 % 1021,3 hPa 0,0 l/m 0,4 km/h (0 Bft) SO 129 0 min 0,000 mm 0,0 UV-I 0 W/m 9,9 C 12,2 C 4,0 km/h (1 Bft) 0,00 %
24.09.2015 19:53 12,2 C 86 % 1021,4 hPa 0,0 l/m 0,0 km/h (0 Bft) W-SW 256 0 min 0,000 mm 0,0 UV-I 0 W/m 9,9 C 12,2 C 0,0 km/h (0 Bft) 0,00 %
24.09.2015 19:58 12,2 C 86 % 1021,5 hPa 0,0 l/m 0,0 km/h (0 Bft) S 182 0 min 0,000 mm 0,0 UV-I 0 W/m 9,9 C 12,2 C 0,0 km/h (0 Bft) 0,00 %
24.09.2015 20:03 12,2 C 86 % 1021,4 hPa 0,0 l/m 0,0 km/h (0 Bft) S 187 0 min 0,000 mm 0,0 UV-I 0 W/m 9,9 C 12,2 C 0,0 km/h (0 Bft) 0,00 %
24.09.2015 20:08 12,2 C 86 % 1021,4 hPa 0,0 l/m 0,0 km/h (0 Bft) O-SO 105 0 min 0,000 mm 0,0 UV-I 0 W/m 9,9 C 12,2 C 0,0 km/h (0 Bft) 0,00 %
24.09.2015 20:13 12,2 C 86 % 1021,5 hPa 0,0 l/m 0,0 km/h (0 Bft) S 173 0 min 0,000 mm 0,0 UV-I 0 W/m 9,9 C 12,2 C 0,0 km/h (0 Bft) 0,00 %
24.09.2015 20:18 12,2 C 86 % 1021,6 hPa 0,0 l/m 0,0 km/h (0 Bft) S 175 0 min 0,000 mm 0,0 UV-I 0 W/m 9,9 C 12,2 C 0,0 km/h (0 Bft) 0,00 %
24.09.2015 20:23 12,1 C 87 % 1021,6 hPa 0,0 l/m 0,0 km/h (0 Bft) S 184 0 min 0,000 mm 0,0 UV-I 0 W/m 10,0 C 12,1 C 0,0 km/h (0 Bft) 0,00 %
24.09.2015 20:28 12,1 C 87 % 1021,6 hPa 0,0 l/m 0,0 km/h (0 Bft) O-SO 103 0 min 0,000 mm 0,0 UV-I 0 W/m 10,0 C 12,1 C 0,0 km/h (0 Bft) 0,00 %
24.09.2015 20:33 12,1 C 87 % 1021,6 hPa 0,0 l/m 0,0 km/h (0 Bft) O 99 0 min 0,000 mm 0,0 UV-I 0 W/m 10,0 C 12,1 C 0,0 km/h (0 Bft) 0,00 %
24.09.2015 20:38 12,0 C 88 % 1021,8 hPa 0,0 l/m 0,0 km/h (0 Bft) O-SO 105 0 min 0,000 mm 0,0 UV-I 0 W/m 10,1 C 12,0 C 0,0 km/h (0 Bft) 0,00 %
24.09.2015 20:43 12,0 C 88 % 1021,9 hPa 0,0 l/m 0,0 km/h (0 Bft) S 176 0 min 0,000 mm 0,0 UV-I 0 W/m 10,1 C 12,0 C 0,0 km/h (0 Bft) 0,00 %
24.09.2015 20:48 12,0 C 88 % 1021,7 hPa 0,0 l/m 0,0 km/h (0 Bft) O 82 0 min 0,000 mm 0,0 UV-I 0 W/m 10,1 C 12,0 C 0,0 km/h (0 Bft) 0,00 %
24.09.2015 20:53 11,9 C 89 % 1021,7 hPa 0,0 l/m 0,0 km/h (0 Bft) O-SO 108 0 min 0,000 mm 0,0 UV-I 0 W/m 10,1 C 11,9 C 0,0 km/h (0 Bft) 0,00 %
24.09.2015 20:58 11,9 C 89 % 1021,6 hPa 0,0 l/m 0,0 km/h (0 Bft) S-SW 201 0 min 0,000 mm 0,0 UV-I 0 W/m 10,1 C 11,9 C 0,0 km/h (0 Bft) 0,00 %
24.09.2015 21:03 11,9 C 89 % 1021,5 hPa 0,0 l/m 0,0 km/h (0 Bft) S-SO 168 0 min 0,000 mm 0,0 UV-I 0 W/m 10,1 C 11,9 C 0,0 km/h (0 Bft) 0,00 %
24.09.2015 21:08 11,9 C 88 % 1021,3 hPa 0,0 l/m 0,0 km/h (0 Bft) O 86 0 min 0,000 mm 0,0 UV-I 0 W/m 10,0 C 11,9 C 0,0 km/h (0 Bft) 0,00 %
24.09.2015 21:13 11,9 C 88 % 1021,1 hPa 0,0 l/m 0,4 km/h (0 Bft) S-SW 194 0 min 0,000 mm 0,0 UV-I 0 W/m 10,0 C 11,9 C 4,0 km/h (1 Bft) 0,00 %
24.09.2015 21:18 11,9 C 88 % 1021,2 hPa 0,0 l/m 0,0 km/h (0 Bft) O-NO 74 0 min 0,000 mm 0,0 UV-I 0 W/m 10,0 C 11,9 C 0,0 km/h (0 Bft) 0,00 %
24.09.2015 21:23 11,9 C 88 % 1021,4 hPa 0,0 l/m 0,0 km/h (0 Bft) S 169 0 min 0,000 mm 0,0 UV-I 0 W/m 10,0 C 11,9 C 0,0 km/h (0 Bft) 0,00 %
24.09.2015 21:28 11,9 C 88 % 1021,4 hPa 0,0 l/m 0,0 km/h (0 Bft) S 175 0 min 0,000 mm 0,0 UV-I 0 W/m 10,0 C 11,9 C 0,0 km/h (0 Bft) 0,00 %
24.09.2015 21:33 11,9 C 88 % 1021,1 hPa 0,0 l/m 0,0 km/h (0 Bft) S-SO 153 0 min 0,000 mm 0,0 UV-I 0 W/m 10,0 C 11,9 C 0,0 km/h (0 Bft) 0,00 %
24.09.2015 21:38 11,9 C 88 % 1021,1 hPa 0,0 l/m 0,0 km/h (0 Bft) N-NO 32 0 min 0,000 mm 0,0 UV-I 0 W/m 10,0 C 11,9 C 0,0 km/h (0 Bft) 0,00 %
24.09.2015 21:43 11,9 C 87 % 1021,1 hPa 0,0 l/m 2,2 km/h (1 Bft) S 186 0 min 0,000 mm 0,0 UV-I 0 W/m 9,8 C 11,9 C 4,0 km/h (1 Bft) 0,00 %
24.09.2015 21:48 11,9 C 87 % 1021,2 hPa 0,0 l/m 2,2 km/h (1 Bft) S 178 0 min 0,000 mm 0,0 UV-I 0 W/m 9,8 C 11,9 C 4,0 km/h (1 Bft) 0,00 %
24.09.2015 21:53 11,9 C 86 % 1021,0 hPa 0,0 l/m 0,0 km/h (0 Bft) O-NO 66 0 min 0,000 mm 0,0 UV-I 0 W/m 9,6 C 11,9 C 0,0 km/h (0 Bft) 0,00 %
24.09.2015 21:58 11,9 C 86 % 1021,2 hPa 0,0 l/m 0,0 km/h (0 Bft) O 80 0 min 0,000 mm 0,0 UV-I 0 W/m 9,6 C 11,9 C 0,0 km/h (0 Bft) 0,00 %
24.09.2015 22:03 11,9 C 86 % 1021,3 hPa 0,0 l/m 3,2 km/h (1 Bft) S-SW 193 0 min 0,000 mm 0,0 UV-I 0 W/m 9,6 C 11,9 C 4,0 km/h (1 Bft) 0,00 %
24.09.2015 22:08 11,9 C 86 % 1021,0 hPa 0,0 l/m 0,4 km/h (0 Bft) S-SW 205 0 min 0,000 mm 0,0 UV-I 0 W/m 9,6 C 11,9 C 4,0 km/h (1 Bft) 0,00 %
24.09.2015 22:13 11,9 C 86 % 1021,2 hPa 0,0 l/m 2,2 km/h (1 Bft) S-SW 194 0 min 0,000 mm 0,0 UV-I 0 W/m 9,6 C 11,9 C 4,0 km/h (1 Bft) 0,00 %
24.09.2015 22:18 11,9 C 86 % 1021,2 hPa 0,0 l/m 1,8 km/h (1 Bft) S-SW 194 0 min 0,000 mm 0,0 UV-I 0 W/m 9,6 C 11,9 C 4,0 km/h (1 Bft) 0,00 %
24.09.2015 22:23 11,9 C 85 % 1021,1 hPa 0,0 l/m 0,0 km/h (0 Bft) O-SO 116 0 min 0,000 mm 0,0 UV-I 0 W/m 9,5 C 11,9 C 0,0 km/h (0 Bft) 0,00 %
24.09.2015 22:28 11,9 C 86 % 1021,1 hPa 0,0 l/m 0,0 km/h (0 Bft) N 354 0 min 0,000 mm 0,0 UV-I 0 W/m 9,6 C 11,9 C 0,0 km/h (0 Bft) 0,00 %
24.09.2015 22:33 11,9 C 86 % 1021,2 hPa 0,0 l/m 0,0 km/h (0 Bft) O-NO 66 0 min 0,000 mm 0,0 UV-I 0 W/m 9,6 C 11,9 C 0,0 km/h (0 Bft) 0,00 %
24.09.2015 22:38 11,9 C 86 % 1021,0 hPa 0,0 l/m 0,0 km/h (0 Bft) O-NO 69 0 min 0,000 mm 0,0 UV-I 0 W/m 9,6 C 11,9 C 0,0 km/h (0 Bft) 0,00 %
24.09.2015 22:43 11,8 C 86 % 1021,2 hPa 0,0 l/m 0,0 km/h (0 Bft) SW 214 0 min 0,000 mm 0,0 UV-I 0 W/m 9,5 C 11,8 C 0,0 km/h (0 Bft) 0,00 %
24.09.2015 22:48 11,8 C 86 % 1021,0 hPa 0,0 l/m 0,0 km/h (0 Bft) S 180 0 min 0,000 mm 0,0 UV-I 0 W/m 9,5 C 11,8 C 0,0 km/h (0 Bft) 0,00 %
24.09.2015 22:53 11,8 C 86 % 1021,1 hPa 0,0 l/m 0,0 km/h (0 Bft) O-NO 68 0 min 0,000 mm 0,0 UV-I 0 W/m 9,5 C 11,8 C 0,0 km/h (0 Bft) 0,00 %
24.09.2015 22:58 11,8 C 86 % 1021,0 hPa 0,0 l/m 0,0 km/h (0 Bft) N-NO 21 0 min 0,000 mm 0,0 UV-I 0 W/m 9,5 C 11,8 C 0,0 km/h (0 Bft) 0,00 %
24.09.2015 23:03 11,8 C 86 % 1021,0 hPa 0,0 l/m 0,0 km/h (0 Bft) S-SW 196 0 min 0,000 mm 0,0 UV-I 0 W/m 9,5 C 11,8 C 0,0 km/h (0 Bft) 0,00 %
24.09.2015 23:08 11,8 C 86 % 1021,3 hPa 0,0 l/m 0,0 km/h (0 Bft) SO 127 0 min 0,000 mm 0,0 UV-I 0 W/m 9,5 C 11,8 C 0,0 km/h (0 Bft) 0,00 %
24.09.2015 23:13 11,7 C 86 % 1021,5 hPa 0,0 l/m 0,0 km/h (0 Bft) SO 132 0 min 0,000 mm 0,0 UV-I 0 W/m 9,4 C 11,7 C 0,0 km/h (0 Bft) 0,00 %
24.09.2015 23:18 11,7 C 86 % 1021,5 hPa 0,0 l/m 0,0 km/h (0 Bft) NO 46 0 min 0,000 mm 0,0 UV-I 0 W/m 9,4 C 11,7 C 0,0 km/h (0 Bft) 0,00 %
24.09.2015 23:23 11,7 C 86 % 1021,3 hPa 0,0 l/m 0,0 km/h (0 Bft) N 354 0 min 0,000 mm 0,0 UV-I 0 W/m 9,4 C 11,7 C 0,0 km/h (0 Bft) 0,00 %
24.09.2015 23:28 11,7 C 86 % 1021,3 hPa 0,0 l/m 0,0 km/h (0 Bft) S 174 0 min 0,000 mm 0,0 UV-I 0 W/m 9,4 C 11,7 C 0,0 km/h (0 Bft) 0,00 %
24.09.2015 23:33 11,7 C 86 % 1021,4 hPa 0,0 l/m 2,9 km/h (1 Bft) S-SW 198 0 min 0,000 mm 0,0 UV-I 0 W/m 9,4 C 11,7 C 4,0 km/h (1 Bft) 0,00 %
24.09.2015 23:38 11,7 C 86 % 1021,5 hPa 0,0 l/m 5,8 km/h (2 Bft) S-SW 196 0 min 0,000 mm 0,0 UV-I 0 W/m 9,4 C 11,7 C 7,9 km/h (2 Bft) 0,00 %
24.09.2015 23:43 11,7 C 86 % 1021,5 hPa 0,0 l/m 0,0 km/h (0 Bft) SW 223 0 min 0,000 mm 0,0 UV-I 0 W/m 9,4 C 11,7 C 0,0 km/h (0 Bft) 0,00 %
24.09.2015 23:48 11,7 C 86 % 1021,5 hPa 0,0 l/m 3,2 km/h (1 Bft) S 178 0 min 0,000 mm 0,0 UV-I 0 W/m 9,4 C 11,7 C 4,0 km/h (1 Bft) 0,00 %
24.09.2015 23:53 11,7 C 86 % 1021,5 hPa 0,0 l/m 1,4 km/h (1 Bft) S 173 0 min 0,000 mm 0,0 UV-I 0 W/m 9,4 C 11,7 C 4,0 km/h (1 Bft) 0,00 %
24.09.2015 23:58 11,6 C 86 % 1021,5 hPa 0,0 l/m 0,7 km/h (0 Bft) S 191 0 min 0,000 mm 0,0 UV-I 0 W/m 9,3 C 11,6 C 4,0 km/h (1 Bft) 0,00 %
_ Min-Zeit 02:32 17:57 00:01 - 00:01 - - - - - - 02:32 02:32 00:01 00:01
Minimum _ 8,5 C 81 % 1017,8 hPa - 0,0 km/h (0 Bft) - - - - - - 8,4 C 8,5 C 0,0 km/h (0 Bft) 0,00 %
_ Max-Zeit 15:42 00:01 20:43 01:11 10:57 - - 15:22 00:01 11:57 11:52 12:52 15:42 10:57 00:01
Maximum _ 13,6 C 99 % 1021,9 hPa 0,3 l/m 9,0 km/h
S (2 Bft)
- - 5 min 0,000 mm 2,0 UV-I 340 W/m 12,2 C 13,6 C 11,9 km/h
S (2 Bft)
0,00 %
Durchschnitt _ 10,9 C 93 % 1020,5 hPa #2,4 l/m 0,7 km/h (0 Bft) S-SW - #35 min. #0,000 mm 1,0 UV-I 140 W/m 9,8 C 10,9 C 1,6 km/h (1 Bft) 0,00 %